User: anonymous   Login
Location: New York
(40.7127°N, 74.0060°W)
Time: 23:45:03
(UTC-04:00)
Language:

RS-15 - Orbit

View from above orbital plane
View from above orbital plane
View from above satellite
View from above satellite

Ground track
Ground track

The orbit data is extracted from the following two-line orbital elements,

1 23439U 94085A   24206.54094452 -.00000042  00000-0  73239-5 0  9990
2 23439  64.8205 343.3600 0149282 136.7013 224.5754 11.27577726217806
Epoch (UTC): 24 July 2024 12:58:57
Eccentricity: 0.0149282
inclination: 64.8205°
perigee height: 1897 km
apogee height: 2148 km
right ascension of ascending node: 343.3600°
argument of perigee: 136.7013°
revolutions per day: 11.27577726
mean anomaly at epoch: 224.5754°
orbit number at epoch: 21780

The dashed part of the orbit path shows where the satellite is in the earth's shadow,  

DLR